Satellite: INMARSAT 3-F1
Catalog number: 23839
Epoch time:      103046.62959373
Element set:     868 
Inclination:        0.0573 deg
RA of node:       353.0439 deg
Eccentricity:    0.0004101
Arg of perigee:   222.2659 deg
Mean anomaly:     220.5485 deg
Mean motion:    1.00275402 rev/day
Decay rate:    1.5999E-007 rev/day^2
Epoch rev:            2518
Checksum:              297

Satellite: ASTRA 1F
Catalog number: 23842
Epoch time:      103041.00000000
Element set:     559 
Inclination:        0.0122 deg
RA of node:       319.8851 deg
Eccentricity:    0.0002995
Arg of perigee:    65.1991 deg
Mean anomaly:     133.7951 deg
Mean motion:    1.00273184 rev/day
Decay rate:    1.3100E-006 rev/day^2
Epoch rev:            2503
Checksum:              228

Satellite: JAS 2
Catalog number: 24278
Epoch time:      103045.84364011
Element set:     560 
Inclination:       98.5331 deg
RA of node:       197.5680 deg
Eccentricity:    0.0350149
Arg of perigee:   226.0612 deg
Mean anomaly:     131.1156 deg
Mean motion:   13.52872359 rev/day
Decay rate:    4.1000E-007 rev/day^2
Epoch rev:           32080
Checksum:              365

Satellite: UNAMSAT
Catalog number: 24305
Epoch time:      103044.53425984
Element set:     662 
Inclination:       82.9330 deg
RA of node:       266.5081 deg
Eccentricity:    0.0028787
Arg of perigee:   215.8521 deg
Mean anomaly:     144.0702 deg
Mean motion:   13.73451134 rev/day
Decay rate:    2.0499E-006 rev/day^2
Epoch rev:           32279
Checksum:              299

Satellite: INMARSAT 3-F2
Catalog number: 24307
Epoch time:      103048.16355904
Element set:     82 
Inclination:        0.0603 deg
RA of node:        13.0422 deg
Eccentricity:    0.0005875
Arg of perigee:   324.1064 deg
Mean anomaly:     212.9403 deg
Mean motion:    1.00272441 rev/day
Decay rate:   -1.2599E-006 rev/day^2
Epoch rev:            2360
Checksum:              241

Satellite: HOT BIRD 2
Catalog number: 24665
Epoch time:      103044.99704955
Element set:     341 
Inclination:        0.0357 deg
RA of node:       283.6079 deg
Eccentricity:    0.0008078
Arg of perigee:    40.2136 deg
Mean anomaly:     191.6915 deg
Mean motion:    1.00273856 rev/day
Decay rate:    9.1999E-007 rev/day^2
Epoch rev:            2321
Checksum:              412

Satellite: INMARSAT 3-F3
Catalog number: 24674
Epoch time:      103047.62888921
Element set:     988 
Inclination:        0.0873 deg
RA of node:       301.4893 deg
Eccentricity:    0.0003929
Arg of perigee:     8.7301 deg
Mean anomaly:     240.4201 deg
Mean motion:    1.00270782 rev/day
Decay rate:    3.7000E-007 rev/day^2
Epoch rev:            2256
Checksum:              282

Satellite: GOES 10
Catalog number: 24786
Epoch time:      103046.28399640
Element set:     545 
Inclination:        0.1398 deg
RA of node:       105.6194 deg
Eccentricity:    0.0002031
Arg of perigee:   250.0166 deg
Mean anomaly:     116.7036 deg
Mean motion:    1.00258300 rev/day
Decay rate:    9.0999E-007 rev/day^2
Epoch rev:            2130
Checksum:              270

Satellite: INMARSAT 3-F4
Catalog number: 24819
Epoch time:      103045.01887189
Element set:     880 
Inclination:        0.0647 deg
RA of node:       292.8259 deg
Eccentricity:    0.0004061
Arg of perigee:    46.1554 deg
Mean anomaly:     117.4509 deg
Mean motion:    1.00270977 rev/day
Decay rate:   -2.8100E-006 rev/day^2
Epoch rev:            2096
Checksum:              297

Satellite: FENGYUN 2A
Catalog number: 24834
Epoch time:      103045.77456852
Element set:     959 
Inclination:        2.5614 deg
RA of node:        88.4803 deg
Eccentricity:    0.0001477
Arg of perigee:   214.3694 deg
Mean anomaly:     205.8893 deg
Mean motion:    1.00283537 rev/day
Decay rate:   -1.9100E-006 rev/day^2
Epoch rev:            2080
Checksum:              300

Satellite: HOT BIRD 3
Catalog number: 24931
Epoch time:      103044.99704955
Element set:     423 
Inclination:        0.0635 deg
RA of node:       283.0100 deg
Eccentricity:    0.0010429
Arg of perigee:    51.6023 deg
Mean anomaly:     180.8732 deg
Mean motion:    1.00272870 rev/day
Decay rate:    9.0999E-007 rev/day^2
Epoch rev:            2003
Checksum:              263

Satellite: METEOSAT 7
Catalog number: 24932
Epoch time:      103045.73427358
Element set:     248 
Inclination:        0.2020 deg
RA of node:        60.5862 deg
Eccentricity:    0.0001357
Arg of perigee:   250.6553 deg
Mean anomaly:      97.8282 deg
Mean motion:    1.00278852 rev/day
Decay rate:    2.9999E-008 rev/day^2
Epoch rev:            1998
Checksum:              316

Satellite: ASTRA 1G
Catalog number: 25071
Epoch time:      103042.06871484
Element set:     391 
Inclination:        0.0217 deg
RA of node:       242.6326 deg
Eccentricity:    0.0075903
Arg of perigee:   319.6138 deg
Mean anomaly:     343.2677 deg
Mean motion:    1.00272369 rev/day
Decay rate:    9.9999E-009 rev/day^2
Epoch rev:            1906
Checksum:              404

Satellite: INMARSAT 3-F5
Catalog number: 25153
Epoch time:      103046.85598995
Element set:     843 
Inclination:        0.4657 deg
RA of node:       353.3866 deg
Eccentricity:    0.0002908
Arg of perigee:   334.1822 deg
Mean anomaly:     150.9649 deg
Mean motion:    1.00271747 rev/day
Decay rate:    1.4099E-006 rev/day^2
Epoch rev:            1847
Checksum:              330

Satellite: HOT BIRD 4
Catalog number: 25237
Epoch time:      103044.99704955
Element set:     326 
Inclination:        0.0271 deg
RA of node:       352.7901 deg
Eccentricity:    0.0007523
Arg of perigee:   278.3132 deg
Mean anomaly:     244.4850 deg
Mean motion:    1.00273304 rev/day
Decay rate:    9.1999E-007 rev/day^2
Epoch rev:            1849
Checksum:              402

Satellite: NOAA 15
Catalog number: 25338
Epoch time:      103046.99891554
Element set:     6 
Inclination:       98.5501 deg
RA of node:        69.2189 deg
Eccentricity:    0.0010266
Arg of perigee:   329.5779 deg
Mean anomaly:      30.4803 deg
Mean motion:   14.24244060 rev/day
Decay rate:    2.5599E-006 rev/day^2
Epoch rev:           24743
Checksum:              325

Satellite: RESURS O1-N4
Catalog number: 25394
Epoch time:      103047.24671778
Element set:     449 
Inclination:       98.6314 deg
RA of node:       125.2185 deg
Eccentricity:    0.0002321
Arg of perigee:   106.9651 deg
Mean anomaly:     253.1782 deg
Mean motion:   14.23877386 rev/day
Decay rate:    1.7700E-006 rev/day^2
Epoch rev:           23920
Checksum:              316

Satellite: TMSAT
Catalog number: 25396
Epoch time:      103047.21630238
Element set:     823 
Inclination:       98.6267 deg
RA of node:       124.3665 deg
Eccentricity:    0.0003441
Arg of perigee:   129.7643 deg
Mean anomaly:     230.3840 deg
Mean motion:   14.23510523 rev/day
Decay rate:   -4.3000E-007 rev/day^2
Epoch rev:           23919
Checksum:              281

Satellite: TECHSAT 1B
Catalog number: 25397
Epoch time:      103043.93235492
Element set:     133 
Inclination:       98.6224 deg
RA of node:       120.0366 deg
Eccentricity:    0.0001678
Arg of perigee:   133.8159 deg
Mean anomaly:     226.3156 deg
Mean motion:   14.22958555 rev/day
Decay rate:    8.3999E-007 rev/day^2
Epoch rev:           23869
Checksum:              335

Satellite: ASTRA 2A
Catalog number: 25462
Epoch time:      103041.00000000
Element set:     531 
Inclination:        0.0385 deg
RA of node:       308.7109 deg
Eccentricity:    0.0004824
Arg of perigee:   280.8620 deg
Mean anomaly:     298.3055 deg
Mean motion:    1.00272094 rev/day
Decay rate:    1.5900E-006 rev/day^2
Epoch rev:            1635
Checksum:              228

Satellite: EUTELSAT W2
Catalog number: 25491
Epoch time:      103044.86217065
Element set:     578 
Inclination:        0.0103 deg
RA of node:       111.2185 deg
Eccentricity:    0.0003737
Arg of perigee:   188.6792 deg
Mean anomaly:     169.9444 deg
Mean motion:    1.00270269 rev/day
Decay rate:    1.0899E-006 rev/day^2
Epoch rev:            1600
Checksum:              286

Satellite: HOT BIRD 5
Catalog number: 25495
Epoch time:      103042.93716436
Element set:     500 
Inclination:        0.0310 deg
RA of node:       255.9940 deg
Eccentricity:    0.0003377
Arg of perigee:    65.4663 deg
Mean anomaly:     190.5501 deg
Mean motion:    1.00272693 rev/day
Decay rate:    1.6499E-006 rev/day^2
Epoch rev:            1595
Checksum:              286

Satellite: SEDSAT 1
Catalog number: 25509
Epoch time:      103046.71357594
Element set:     780 
Inclination:       31.4297 deg
RA of node:       169.2968 deg
Eccentricity:    0.0358483
Arg of perigee:   277.9460 deg
Mean anomaly:      78.0607 deg
Mean motion:   14.27432851 rev/day
Decay rate:    1.2589E-005 rev/day^2
Epoch rev:           22490
Checksum:              344

Satellite: PAN SAT
Catalog number: 25520
Epoch time:      103046.92234715
Element set:     638 
Inclination:       28.4593 deg
RA of node:       241.4854 deg
Eccentricity:    0.0005372
Arg of perigee:   319.6173 deg
Mean anomaly:      40.4028 deg
Mean motion:   15.13876265 rev/day
Decay rate:    3.4169E-005 rev/day^2
Epoch rev:           23718
Checksum:              303

Satellite: ISS (ZARYA)
Catalog number: 25544
Epoch time:      103049.52274850
Element set:     703 
Inclination:       51.6338 deg
RA of node:       256.2201 deg
Eccentricity:    0.0012155
Arg of perigee:   216.7032 deg
Mean anomaly:     243.6695 deg
Mean motion:   15.58511986 rev/day
Decay rate:    2.0194E-004 rev/day^2
Epoch rev:           24249
Checksum:              291

